Woodward, OK

12:49 PM CDT on May 27, 2018 (GMT -0500)
West Woodward

Weather History for KWWR - July, 2013

Change the Weather History Date:

Tuesday, July 23, 2013

  Actual Average (KGAG) Record (KGAG)
Temperature  
Mean Temperature 88 °F -  
Max Temperature 100 °F 92 °F 106 °F (1981)
Min Temperature 77 °F 67 °F 56 °F (1990)
Cooling Degree Days 24    
Growing Degree Days 38 (Base 50)    
Moisture  
Dew Point 63 °F    
Average Humidity 44    
Maximum Humidity 74    
Minimum Humidity 25    
Precipitation  
Precipitation 0.00 in - - ()
Sea Level Pressure  
Sea Level Pressure 29.91 in    
Wind  
Wind Speed 12 mph (SSW)    
Max Wind Speed 18 mph    
Max Gust Speed 26 mph    
Visibility 10 miles    
Events      
Averages and records for this station are not official NWS values.
T = Trace of Precipitation, MM = Missing Value Source: NWS Daily Summary

Daily Weather History Graph

Daily Weather History Graph

Search for Another Location

Airport or City:

Astronomy

Jul. 23, 2013 Rise Set
Actual Time 6:37 AM CDT 8:51 PM CDT
Civil Twilight 6:08 AM CDT 9:20 PM CDT
Nautical Twilight 5:32 AM CDT 9:55 PM CDT
Astronomical Twilight 4:54 AM CDT 10:34 PM CDT
Moon 9:25 PM CDT (7/23) 7:44 AM CDT (7/23)
Length of Visible Light 15h 11m
Length of Day
14h 13m
Full, 99% of the Moon is Illuminated
Jul 23
Full
Jul 29
Last Quarter
Aug 6
New
Aug 14
First Quarter
Aug 20
Full

Hourly Weather History & Observations

Time (CDT) Temp. Heat Index Dew Point Humidity Pressure Visibility Wind Dir Wind Speed Gust Speed Precip Events Conditions
12:15 AM 86.0 °F 86.6 °F 62.6 °F 45% 29.92 in 10.0 mi South 12.7 mph 20.7 mph N/A   Clear
12:35 AM 86.0 °F 86.6 °F 62.6 °F 45% 29.92 in 10.0 mi South 11.5 mph - N/A   Clear
12:55 AM 86.0 °F 86.6 °F 62.6 °F 45% 29.93 in 10.0 mi South 13.8 mph - N/A   Clear
1:15 AM 84.2 °F 85.0 °F 62.6 °F 48% 29.93 in 10.0 mi South 11.5 mph - N/A   Clear
1:35 AM 82.4 °F 83.9 °F 64.4 °F 54% 29.94 in 10.0 mi South 9.2 mph - N/A   Clear
1:55 AM 82.4 °F 83.9 °F 64.4 °F 54% 29.93 in 10.0 mi SSW 11.5 mph - N/A   Clear
2:15 AM 82.4 °F 83.9 °F 64.4 °F 54% 29.93 in 10.0 mi SSW 13.8 mph - N/A   Clear
2:35 AM 80.6 °F 82.3 °F 64.4 °F 58% 29.92 in 10.0 mi SSW 13.8 mph 18.4 mph N/A   Clear
2:55 AM 80.6 °F 82.3 °F 64.4 °F 58% 29.93 in 10.0 mi SSW 10.4 mph - N/A   Clear
3:15 AM 80.6 °F 82.3 °F 64.4 °F 58% 29.93 in 10.0 mi South 8.1 mph - N/A   Clear
3:35 AM 78.8 °F - 64.4 °F 61% 29.93 in 10.0 mi South 8.1 mph - N/A   Clear
3:55 AM 78.8 °F - 66.2 °F 65% 29.93 in 10.0 mi South 9.2 mph - N/A   Clear
4:15 AM 78.8 °F - 66.2 °F 65% 29.92 in 10.0 mi SSW 11.5 mph - N/A   Clear
4:35 AM 78.8 °F - 66.2 °F 65% 29.93 in 10.0 mi SSW 11.5 mph - N/A   Clear
4:55 AM 78.8 °F - 66.2 °F 65% 29.93 in 10.0 mi SSW 8.1 mph - N/A   Clear
5:15 AM 78.8 °F - 66.2 °F 65% 29.93 in 10.0 mi SSW 10.4 mph - N/A   Clear
5:35 AM 78.8 °F - 66.2 °F 65% 29.93 in 10.0 mi SSW 10.4 mph - N/A   Clear
5:55 AM 78.8 °F - 66.2 °F 65% 29.93 in 10.0 mi SW 9.2 mph - N/A   Clear
6:15 AM 77.0 °F - 66.2 °F 69% 29.94 in 10.0 mi SW 5.8 mph - N/A   Clear
6:35 AM 77.0 °F - 66.2 °F 69% 29.94 in 10.0 mi SW 8.1 mph - N/A   Clear
6:55 AM 77.0 °F - 68.0 °F 74% 29.93 in 10.0 mi SSW 9.2 mph - N/A   Clear
7:15 AM 78.8 °F - 68.0 °F 69% 29.92 in 10.0 mi SSW 16.1 mph - N/A   Clear
7:35 AM 78.8 °F - 68.0 °F 69% 29.93 in 10.0 mi SSW 11.5 mph - N/A   Clear
7:55 AM 80.6 °F 83.2 °F 68.0 °F 65% 29.93 in 10.0 mi SSW 11.5 mph 16.1 mph N/A   Clear
8:15 AM 82.4 °F 85.4 °F 68.0 °F 62% 29.93 in 10.0 mi SSW 10.4 mph - N/A   Clear
8:35 AM 82.4 °F 85.4 °F 68.0 °F 62% 29.94 in 10.0 mi SSW 10.4 mph - N/A   Clear
8:55 AM 84.2 °F 86.6 °F 66.2 °F 55% 29.95 in 10.0 mi SSW 12.7 mph - N/A   Clear
9:15 AM 86.0 °F 88.2 °F 66.2 °F 51% 29.95 in 10.0 mi SSW 11.5 mph - N/A   Clear
9:35 AM 87.8 °F 90.4 °F 66.2 °F 49% 29.95 in 10.0 mi SSW 15.0 mph - N/A   Clear
9:55 AM 87.8 °F 90.4 °F 66.2 °F 49% 29.95 in 10.0 mi SSW 16.1 mph - N/A   Clear
10:15 AM 89.6 °F 92.2 °F 66.2 °F 46% 29.94 in 10.0 mi SSW 16.1 mph 23.0 mph N/A   Clear
10:35 AM 89.6 °F 92.2 °F 66.2 °F 46% 29.95 in 10.0 mi SSW 16.1 mph - N/A   Clear
10:55 AM 91.4 °F 94.0 °F 66.2 °F 43% 29.95 in 10.0 mi SSW 15.0 mph - N/A   Clear
11:15 AM 91.4 °F 94.0 °F 66.2 °F 43% 29.95 in 10.0 mi SSW 12.7 mph 18.4 mph N/A   Clear
11:35 AM 93.2 °F 94.9 °F 64.4 °F 38% 29.95 in 10.0 mi SSW 10.4 mph 19.6 mph N/A   Clear
11:55 AM 95.0 °F 97.0 °F 64.4 °F 36% 29.95 in 10.0 mi South 10.4 mph 17.3 mph N/A   Clear
12:15 PM 96.8 °F 99.0 °F 64.4 °F 34% 29.95 in 10.0 mi SW 11.5 mph 18.4 mph N/A   Clear
12:35 PM 96.8 °F 99.0 °F 64.4 °F 34% 29.95 in 10.0 mi SSW 10.4 mph 19.6 mph N/A   Clear
12:55 PM 96.8 °F 97.1 °F 60.8 °F 30% 29.94 in 10.0 mi SSW 11.5 mph 20.7 mph N/A   Clear
1:15 PM 96.8 °F 97.1 °F 60.8 °F 30% 29.94 in 10.0 mi South 15.0 mph 20.7 mph N/A   Clear
1:35 PM 98.6 °F 100.0 °F 62.6 °F 30% 29.93 in 10.0 mi South 9.2 mph - N/A   Clear
1:55 PM 98.6 °F 99.4 °F 60.8 °F 29% 29.92 in 10.0 mi SSW 13.8 mph 20.7 mph N/A   Clear
2:15 PM 98.6 °F 99.4 °F 60.8 °F 29% 29.89 in 10.0 mi South 13.8 mph 25.3 mph N/A   Clear
2:35 PM 100.4 °F 100.2 °F 59.0 °F 25% 29.89 in 10.0 mi SSW 17.3 mph 25.3 mph N/A   Clear
3:15 PM 100.4 °F 100.2 °F 59.0 °F 25% 29.88 in 10.0 mi SSW 18.4 mph 26.5 mph N/A   Clear
3:35 PM 100.4 °F 101.3 °F 60.8 °F 27% 29.88 in 10.0 mi South 15.0 mph 25.3 mph N/A   Clear
3:55 PM 100.4 °F 100.2 °F 59.0 °F 25% 29.89 in 10.0 mi South 15.0 mph 26.5 mph N/A   Clear
4:15 PM 100.4 °F 100.2 °F 59.0 °F 25% 29.89 in 10.0 mi SSW 10.4 mph 18.4 mph N/A   Clear
4:35 PM 100.4 °F 101.3 °F 60.8 °F 27% 29.88 in 10.0 mi South 13.8 mph - N/A   Clear
4:55 PM 100.4 °F 101.3 °F 60.8 °F 27% 29.87 in 10.0 mi South 15.0 mph 23.0 mph N/A   Clear
5:15 PM 100.4 °F 101.3 °F 60.8 °F 27% 29.86 in 10.0 mi South 17.3 mph 20.7 mph N/A   Clear
5:35 PM 100.4 °F 100.2 °F 59.0 °F 25% 29.86 in 10.0 mi South 18.4 mph 24.2 mph N/A   Clear
5:55 PM 100.4 °F 100.2 °F 59.0 °F 25% 29.85 in 10.0 mi SSW 16.1 mph 24.2 mph N/A   Clear
6:15 PM 100.4 °F 100.2 °F 59.0 °F 25% 29.85 in 10.0 mi South 16.1 mph 21.9 mph N/A   Clear
6:35 PM 98.6 °F 98.5 °F 59.0 °F 27% 29.84 in 10.0 mi South 13.8 mph - N/A   Clear
6:55 PM 98.6 °F 98.5 °F 59.0 °F 27% 29.85 in 10.0 mi SSW 12.7 mph 21.9 mph N/A   Clear
7:15 PM 96.8 °F 96.2 °F 59.0 °F 28% 29.84 in 10.0 mi South 15.0 mph - N/A   Clear
7:35 PM 96.8 °F 96.2 °F 59.0 °F 28% 29.84 in 10.0 mi SSW 12.7 mph - N/A   Clear
7:55 PM 95.0 °F 95.2 °F 60.8 °F 32% 29.83 in 10.0 mi South 11.5 mph - N/A   Clear
8:15 PM 95.0 °F 95.2 °F 60.8 °F 32% 29.85 in 10.0 mi South 9.2 mph - N/A   Clear
8:35 PM 91.4 °F 91.4 °F 60.8 °F 36% 29.85 in 10.0 mi South 10.4 mph - N/A   Clear
8:55 PM 91.4 °F 92.1 °F 62.6 °F 38% 29.85 in 10.0 mi South 12.7 mph - N/A   Clear
9:15 PM 91.4 °F 92.1 °F 62.6 °F 38% 29.87 in 10.0 mi SSW 10.4 mph - N/A   Clear
9:35 PM 89.6 °F 90.1 °F 62.6 °F 40% 29.87 in 10.0 mi SSW 10.4 mph - N/A   Clear
9:55 PM 89.6 °F 90.1 °F 62.6 °F 40% 29.87 in 10.0 mi South 6.9 mph - N/A   Clear
10:15 PM 87.8 °F 88.5 °F 62.6 °F 43% 29.90 in 10.0 mi NE 3.5 mph 9.2 mph N/A   Clear
10:35 PM 91.4 °F 92.1 °F 62.6 °F 38% 29.88 in 10.0 mi SSE 5.8 mph - N/A   Clear
10:55 PM 89.6 °F 90.1 °F 62.6 °F 40% 29.89 in 10.0 mi SE 8.1 mph - N/A   Clear
11:15 PM 87.8 °F 88.5 °F 62.6 °F 43% 29.89 in 10.0 mi SSE 9.2 mph - N/A   Clear
11:35 PM 87.8 °F 88.5 °F 62.6 °F 43% 29.88 in 10.0 mi South 10.4 mph - N/A   Clear
11:55 PM 87.8 °F 88.5 °F 62.6 °F 43% 29.89 in 10.0 mi South 9.2 mph - N/A   Clear